Weather History for Boscobel, WI

Change the Weather History Date:

Monday, February 11, 2013

  Actual Average (KPDC) Record (KPDC)
Temperature  
Mean Temperature 30 °F -  
Max Temperature 35 °F 30 °F 56 °F (1977)
Min Temperature 24 °F 11 °F -21 °F (2014)
Degree Days  
Heating Degree Days 36    
Moisture  
Dew Point 26 °F    
Average Humidity 82    
Maximum Humidity 93    
Minimum Humidity 67    
Precipitation  
Precipitation 0.01 in - - ()
Sea Level Pressure  
Sea Level Pressure 29.62 in    
Wind  
Wind Speed 16 mph (WSW)    
Max Wind Speed 21 mph    
Max Gust Speed 34 mph    
Visibility 5 miles    
Events Snow    
Averages and records for this station are not official NWS values.
T = Trace of Precipitation, MM = Missing Value Source: NWS Daily Summary

Daily Weather History Graph

Daily Weather History Graph

Search for Another Location

Airport:

Trip Planner

Search our weather history database for the weather conditions in past years. The results will help you decide how hot, cold, wet, or windy it might be!

Date:

Astronomy

Feb. 11, 2013 Rise Set
Actual Time 7:05 AM CST 5:28 PM CST
Civil Twilight 6:36 AM CST 5:58 PM CST
Nautical Twilight 6:02 AM CST 6:31 PM CST
Astronomical Twilight 5:29 AM CST 7:04 PM CST
Moon 7:26 AM CST (2/11) 7:30 PM CST (2/11)
Length of Visible Light 11h 22m
Length of Day
10h 23m
Waxing Crescent, 3% of the Moon is Illuminated
Feb 11
Waxing Crescent
Feb 17
First Quarter
Feb 25
Full
Mar 4
Last Quarter
Mar 11
New

Hourly Weather History & Observations

Time (CST) Temp. Windchill Dew Point Humidity Pressure Visibility Wind Dir Wind Speed Gust Speed Precip Events Conditions
12:14 AM 35.6 °F 25.2 °F 32.0 °F 87% 29.37 in 4.0 mi SW 18.4 mph 33.4 mph 0.00 in Snow Light Snow
12:53 AM 35.1 °F 23.8 °F 30.9 °F 85% 29.39 in 6.0 mi SW 20.7 mph 29.9 mph 0.00 in Snow Light Snow
1:53 AM 35.1 °F 24.5 °F 30.0 °F 82% 29.40 in 10.0 mi SW 18.4 mph 28.8 mph 0.00 in   Overcast
2:17 AM 33.8 °F 23.5 °F 30.2 °F 87% 29.40 in 1.8 mi SW 16.1 mph 28.8 mph 0.00 in Snow Light Snow
2:27 AM 33.8 °F 22.2 °F 30.2 °F 87% 29.40 in 1.8 mi SW 20.7 mph 27.6 mph 0.00 in Snow Light Snow
2:32 AM 33.8 °F 23.2 °F 30.2 °F 87% 29.41 in 2.0 mi SW 17.3 mph 27.6 mph 0.00 in Snow Light Snow
2:39 AM 33.8 °F 22.8 °F 30.2 °F 87% 29.41 in 1.5 mi SW 18.4 mph 27.6 mph 0.00 in Snow Light Snow
2:49 AM 32.0 °F 20.8 °F 30.2 °F 93% 29.41 in 1.2 mi SW 17.3 mph 31.1 mph 0.00 in Snow Light Snow
2:53 AM 32.0 °F 20.5 °F 30.0 °F 92% 29.44 in 1.2 mi SW 18.4 mph 31.1 mph 0.00 in Snow Light Snow
3:01 AM 32.0 °F 20.5 °F 30.2 °F 93% 29.42 in 1.0 mi SW 18.4 mph 26.5 mph 0.00 in Snow Light Snow
3:17 AM 32.0 °F 21.2 °F 30.2 °F 93% 29.42 in 1.2 mi SW 16.1 mph 24.2 mph 0.00 in Snow Light Snow
3:26 AM 32.0 °F 20.8 °F 28.4 °F 87% 29.42 in 2.0 mi SW 17.3 mph 27.6 mph 0.00 in Snow Light Snow
3:32 AM 32.0 °F 21.2 °F 28.4 °F 87% 29.42 in 3.0 mi SW 16.1 mph 25.3 mph 0.00 in Snow Light Snow
3:53 AM 32.0 °F 21.2 °F 28.9 °F 88% 29.46 in 2.5 mi SW 16.1 mph 25.3 mph 0.00 in Snow Light Snow
3:58 AM 32.0 °F 21.6 °F 28.4 °F 87% 29.44 in 1.8 mi SW 15.0 mph 24.2 mph 0.00 in Snow Light Snow
4:11 AM 32.0 °F 21.6 °F 28.4 °F 87% 29.45 in 1.8 mi SW 15.0 mph 23.0 mph 0.00 in Snow Light Snow
4:46 AM 32.0 °F 21.6 °F 28.4 °F 87% 29.47 in 1.2 mi WSW 15.0 mph 26.5 mph 0.00 in Snow Light Snow
4:53 AM 32.0 °F 20.8 °F 28.0 °F 85% 29.49 in 1.5 mi WSW 17.3 mph 25.3 mph 0.00 in Snow Light Snow
5:05 AM 32.0 °F 22.5 °F 28.4 °F 87% 29.47 in 2.0 mi WSW 12.7 mph 23.0 mph 0.00 in Snow Light Snow
5:51 AM 30.2 °F 20.2 °F 28.4 °F 93% 29.50 in 1.2 mi SW 12.7 mph 19.6 mph 0.00 in Snow Light Snow
5:53 AM 30.9 °F 21.7 °F 28.0 °F 89% 29.53 in 1.2 mi SW 11.5 mph 19.6 mph 0.00 in Snow Light Snow
6:00 AM 30.2 °F 19.8 °F 28.4 °F 93% 29.51 in 1.0 mi SW 13.8 mph 19.6 mph 0.00 in Snow Light Snow
6:11 AM 30.2 °F 20.2 °F 28.4 °F 93% 29.52 in 1.2 mi SW 12.7 mph - 0.00 in Snow Light Snow
6:29 AM 30.2 °F 19.3 °F 28.4 °F 93% 29.54 in 3.0 mi WSW 15.0 mph 21.9 mph 0.00 in Snow Light Snow
6:42 AM 32.0 °F 22.5 °F 28.4 °F 87% 29.54 in 1.8 mi WSW 12.7 mph 19.6 mph 0.01 in Snow Light Snow
6:50 AM 32.0 °F 22.5 °F 28.4 °F 87% 29.54 in 3.0 mi WSW 12.7 mph 19.6 mph 0.01 in Snow Light Snow
6:53 AM 32.0 °F 23.6 °F 28.0 °F 85% 29.56 in 6.0 mi WSW 10.4 mph 18.4 mph 0.01 in Snow Light Snow
7:14 AM 32.0 °F 23.0 °F 28.4 °F 87% 29.56 in 9.0 mi West 11.5 mph 19.6 mph 0.00 in Snow Light Snow
7:53 AM 33.1 °F 23.4 °F 27.0 °F 78% 29.61 in 10.0 mi WSW 13.8 mph 21.9 mph 0.00 in   Overcast
8:09 AM 33.8 °F 23.9 °F 26.6 °F 75% 29.61 in 7.0 mi West 15.0 mph 34.5 mph N/A   Overcast
8:53 AM 33.1 °F 25.5 °F 26.1 °F 75% 29.66 in 10.0 mi West 9.2 mph 25.3 mph N/A   Overcast
9:53 AM 30.9 °F 20.2 °F 25.0 °F 79% 29.71 in 10.0 mi West 15.0 mph 31.1 mph N/A   Overcast
10:53 AM 30.9 °F 19.4 °F 23.0 °F 72% 29.76 in 9.0 mi West 17.3 mph 27.6 mph N/A   Overcast
11:53 AM 30.0 °F 18.7 °F 21.9 °F 72% 29.79 in 10.0 mi West 16.1 mph 28.8 mph 0.00 in   Overcast
12:53 PM 30.0 °F 17.9 °F 21.0 °F 69% 29.83 in 9.0 mi West 18.4 mph 26.5 mph 0.00 in   Overcast
1:53 PM 30.0 °F 19.5 °F 21.0 °F 69% 29.86 in 6.0 mi West 13.8 mph 29.9 mph 0.00 in   Overcast
2:53 PM 28.9 °F 16.5 °F 19.9 °F 69% 29.89 in 8.0 mi West 18.4 mph 29.9 mph N/A   Overcast
3:53 PM 28.9 °F 18.2 °F 19.0 °F 67% 29.92 in 10.0 mi WNW 13.8 mph 20.7 mph N/A   Overcast
4:53 PM 28.0 °F 15.3 °F 19.9 °F 72% 29.95 in 10.0 mi West 18.4 mph 24.2 mph N/A   Overcast
5:53 PM 28.0 °F 16.5 °F 19.0 °F 69% 29.97 in 10.0 mi West 15.0 mph 21.9 mph N/A   Overcast
6:53 PM 28.0 °F 19.3 °F 19.0 °F 69% 30.01 in 10.0 mi West 9.2 mph - N/A   Overcast
7:53 PM 27.0 °F 18.0 °F 19.0 °F 72% 30.03 in 10.0 mi WSW 9.2 mph - N/A   Overcast
8:53 PM 26.1 °F 15.0 °F 17.1 °F 69% 30.05 in 10.0 mi West 12.7 mph 20.7 mph N/A   Overcast
9:53 PM 24.1 °F 12.5 °F 15.1 °F 69% 30.06 in 10.0 mi West 12.7 mph 25.3 mph N/A   Overcast
10:53 PM 24.1 °F 17.0 °F 16.0 °F 71% 30.06 in 10.0 mi Variable 5.8 mph - N/A   Overcast
11:53 PM 24.1 °F 15.2 °F 16.0 °F 71% 30.07 in 10.0 mi WNW 8.1 mph - N/A   Overcast